{"data":{"norad_id":67286,"intl_designator":"2025-313AQ","name":"MULE 4T","alt_names":[],"object_type":"PAYLOAD","status":"ACTIVE","operator":null,"country":"CIS","launch_date":"2025-12-28","launch_site_code":"VOSTO","launch_vehicle":null,"mission":null,"orbit_class":"UNKNOWN","rcs_meters":null,"size_class":null,"mass_kg":null,"dimensions":null,"purposes":[],"wikipedia_slug":null,"has_3d_model":false,"image_url":null,"decayed_at":null,"tle_current":{"epoch":"2026-09-20T22:41:13.261632Z","epoch_age_seconds":64568,"freshness":"FRESH","line1":"1 67286U 25313AQ  26263.94529238  .00005553  00000+0  22157-3 0  9991","line2":"2 67286  97.3855 337.6328 0009781  26.7473 333.4268 15.25537837 40564","mean_motion":15.25537837,"eccentricity":0.0009781,"inclination_deg":97.3855,"raan_deg":337.6328,"arg_perigee_deg":26.7473,"mean_anomaly_deg":333.4268,"bstar":0.00022157,"rev_number":4056,"period_min":94.392939006468,"perigee_km":482.4539733778,"apogee_km":495.88780106678,"semimajor_km":6867.3078872223,"source":"CELESTRAK","updated_at":"2026-09-21T09:00:16.548531Z"}}}